Volver al catálogo

OPS 4682 DEB

ActivoPO
NORAD 38373·DEBRIS·🇺🇸 United States

Lanzado Apr 3, 1965 desde Vandenberg Space Force Base

Loading…

Próximos Pases (próximas 24 horas)

TLE

ActualizadoSource: Space-Track

Época: Sep 11, 2026, 08:39 UTC

1 38373U 65027CA  26254.36110437  .00000473  00000-0  15228-2 0  9992
2 38373  90.2784  32.6791 0029141 316.1382  43.7427 13.01088749628245

Sigue OPS 4682 DEB en tiempo real con AllMySat

Download on the App Store